Content
SEND FEEDBACK

Daily
Averages
Monthly
Summary
Croatia

SPLIT, CROATIA


Home > Europe > Croatia
Elevation: 69 feet     Latitude: 43 32N     Longitude: 016 18E

WEATHER
 
SELECT A DAY
Number of Records: 287,916;   Date Range: 1/10/97 - 8/10/14
 
SHARE

PRINT THIS DATA

[ ← Previous Day ]
WEATHER ALMANAC - OCTOBER 5, 2013
[ Next Day → ]
[ °C ]   °F
Weather ElementAverageHighLow
Temperature58.1 °F66.2 °F (12:00 pm)50 °F (5:00 am)
Dewpoint45.9 °F53.6 °F (5:00 pm)39 °F (5:00 am)
Humidity63.3 %82 % (5:00 pm)34 % (11:00 am)
Barometer30.23 in30.30 in (12:30 am)30.18 in (3:00 pm)
Wind Speed5.5 mph11.5 mph (3:30 pm)
Weather ElementAverage
Visibility8.4 mi
Wind DirectionE (90.5 °)

Weather ElementTotal
Precipitation---
Heating Degree Days6.9 (Base 65)
Growing Degree Days8.1 (Base 50)
Averaged from 55 records on October 5, 2013
WEATHER CONDITIONS BREAKOUT
WIND DIRECTION BREAKOUT
WEATHER BY HOUR - OCTOBER 5, 2013
[ °C ]   °F
Local TimeTemperatureDewpointHumidityBarometerVisibilityWind DirectionWind SpeedGust SpeedPrecipitationEventsConditions
12:30 AM55.4 °F41.0 °F58 %30.30 inCalmClear
1:00 AM55.4 °F41.0 °F58 %30.30 inNorth (350°)4.6 mphClear
1:30 AM55.4 °F41.0 °F58 %30.30 inVariable3.5 mphClear
2:00 AM54.0 °F40.0 °F49 %30.30 in12.0 miNNW (340°)4.5 mphPartly Cloudy
2:00 AM53.6 °F41.0 °F62 %30.30 inVariable3.5 mphClear
2:30 AM53.6 °F41.0 °F62 %30.27 inVariable3.5 mphClear
3:00 AM53.6 °F41.0 °F62 %30.27 inNNW (340°)5.8 mphClear
3:30 AM53.6 °F41.0 °F62 %30.24 inVariable2.3 mphClear
4:00 AM51.8 °F39.2 °F62 %30.24 inVariable2.3 mphClear
4:30 AM51.8 °F39.2 °F62 %30.24 inVariable3.5 mphClear
5:00 AM51.0 °F39.0 °F54 %30.28 in12.0 miNW (320°)2.2 mph
5:00 AM50.0 °F39.2 °F66 %30.27 inVariable1.2 mphClear
5:30 AM50.0 °F39.2 °F66 %30.27 inNNW (340°)4.6 mphClear
6:00 AM50.0 °F39.2 °F66 %30.27 inVariable2.3 mphClear
6:30 AM50.0 °F39.2 °F66 %30.24 inVariable3.5 mphClear
7:00 AM50.0 °F41.0 °F71 %30.24 inNorth (10°)4.6 mphClear
7:30 AM50.0 °F41.0 °F71 %30.24 inNorth (350°)5.8 mphClear
8:00 AM51.0 °F41.0 °F60 %30.26 in19.0 miNorth4.5 mphScattered Clouds
8:00 AM51.8 °F41.0 °F67 %30.24 inNorth (360°)4.6 mphClear
8:30 AM57.2 °F44.6 °F63 %30.24 inVariable3.5 mphClear
9:00 AM60.8 °F44.6 °F55 %30.21 inEast (80°)5.8 mphClear
9:30 AM62.6 °F44.6 °F52 %30.21 inEast (90°)8.1 mphClear
10:00 AM64.4 °F42.8 °F45 %30.21 inEast (90°)8.1 mphClear
10:30 AM64.4 °F41.0 °F42 %30.24 inEast (80°)5.8 mphClear
11:00 AM65.0 °F44.0 °F34 %30.27 in19.0 miESE (120°)4.5 mphMostly Cloudy
11:00 AM64.4 °F42.8 °F45 %30.27 inESE (120°)5.8 mphClear
11:30 AM64.4 °F44.6 °F49 %30.27 inESE (110°)4.6 mphClear
12:00 PM66.2 °F46.4 °F49 %30.24 inESE (110°)5.8 mphClear
12:30 PM66.2 °F48.2 °F52 %30.24 in6.2 miESE (110°)6.9 mphScattered Clouds
1:00 PM64.4 °F48.2 °F56 %30.24 in6.2 miESE (110°)8.1 mphScattered Clouds
1:30 PM64.4 °F50.0 °F59 %30.21 in6.2 miEast (100°)8.1 mphMostly Cloudy
2:00 PM64.0 °F51.0 °F53 %30.22 in19.0 miEast (100°)8.9 mphOvercast
2:00 PM64.4 °F51.8 °F64 %30.21 in6.2 miEast (100°)8.1 mphScattered Clouds
2:30 PM64.4 °F50.0 °F59 %30.21 in6.2 miESE (120°)9.2 mphRainLight Rain
3:00 PM64.4 °F42.8 °F45 %30.18 in6.2 miEast (100°)9.2 mphScattered Clouds
3:30 PM64.4 °F51.8 °F64 %30.18 in6.2 miESE (120°)11.5 mphScattered Clouds
4:00 PM62.6 °F51.8 °F68 %30.21 in6.2 miESE (110°)8.1 mphRainLight Rain
4:30 PM60.8 °F51.8 °F72 %30.21 in6.2 miVariable3.5 mphRainLight Rain
5:00 PM60.0 °F53.0 °F72 %30.22 in12.0 miSSE (150°)6.7 mphRainLight Rain
5:00 PM59.0 °F53.6 °F82 %30.21 in6.2 miSSE (150°)5.8 mphRainLight Rain
5:30 PM60.8 °F53.6 °F77 %30.21 in6.2 miVariable3.5 mphRainLight Rain
6:00 PM57.2 °F50.0 °F77 %30.21 in6.2 miNE (40°)9.2 mphRainLight Rain
6:30 PM57.2 °F50.0 °F77 %30.21 in6.2 miNE (40°)8.1 mphScattered Clouds
7:00 PM57.2 °F51.8 °F82 %30.21 in6.2 miNE (40°)5.8 mphMostly Cloudy
7:30 PM59.0 °F51.8 °F77 %30.21 in6.2 miEast (80°)9.2 mphMostly Cloudy
8:00 PM58.0 °F51.0 °F71 %30.21 in12.0 miENE (60°)6.7 mphPartly Cloudy
8:00 PM59.0 °F51.8 °F77 %30.21 in6.2 miENE (60°)6.9 mphScattered Clouds
8:30 PM57.2 °F51.8 °F82 %30.21 in6.2 miNorth (10°)5.8 mphScattered Clouds
9:00 PM57.2 °F51.8 °F82 %30.21 in6.2 miNorth (10°)5.8 mphScattered Clouds
9:30 PM59.0 °F51.8 °F77 %30.18 in6.2 miNNE (20°)4.6 mphScattered Clouds
10:00 PM59.0 °F51.8 °F77 %30.18 in6.2 miNNE (30°)5.8 mphScattered Clouds
10:30 PM59.0 °F50.0 °F72 %30.18 in6.2 miNNE (30°)5.8 mphOvercast
11:00 PM60.0 °F48.0 °F55 %30.20 in12.0 miCalm (30°)Partly Cloudy
11:00 PM59.0 °F48.2 °F67 %30.18 in6.2 miNNE (30°)4.6 mphScattered Clouds
11:30 PM59.0 °F48.2 °F67 %30.18 in6.2 miNNE (20°)5.8 mphScattered Clouds
Hourly data recorded from LDSP, located miles away from Split, Croatia







STORIES FROM OUR PARTNERS